Home > Weather > Havana > Past weeks

Flag for Cuba Weather for the Past 2 Weeks in Havana, Cuba

Now
70 °F

Fog.


Feels Like: 70 °F
Forecast: 77 / 90 °F
Wind: No wind

Location: Aeropuerto Jose Marti - Rancho-Boyeros - Habana

Current Time: May 3, 2016 at 7:12:09 AM

Latest Report: May 3, 2016 at 5:55 AM


Visibility: 2 mi

Pressure: 29.95 "Hg

Humidity: 88%

Dew Point: 66 °F

Location of HavanaLocation

Historic Weather in Havana — Graph

°F

Havana Temperature Yesterday

Maximum temperature yesterday: 90 °F (at 12:55 PM)
Minimum temperature yesterday: 73 °F (at 3:55 AM)
Average temperature yesterday: 81 °F

High & Low Weather Summary for the Past Weeks

 TemperatureHumidityPressure
High91 °F (Apr 25, 2:55 PM)94% (Apr 23, 1:55 AM)30.12 "Hg (Apr 23, 1:55 AM)
Low59 °F (Apr 19, 5:55 AM)29% (Apr 19, 1:55 PM)29.86 "Hg (Apr 27, 3:55 AM)
Average77 °F65%29.97 "Hg
* Reported Apr 18 5:55 AM — May 3 5:55 AM, Havana, Weather by CustomWeather, © 2016

Note: Actual official high and low records may vary slightly from our data, if they occured in-between our weather recording intervals... More about our weather records

Advertising

Havana Weather History for the Previous 24 Hours

Scroll right to see more
 ConditionsComfort  
Time TempWeatherWind HumidityBarometerVisibility
5:55 AM
Tue, May 3
70 °FFog.No wind88%29.95 "Hg2 mi
4:55 AM70 °FMild.No wind88%29.95 "Hg2 mi
3:55 AM70 °FFog.2 mph88%29.95 "Hg3 mi
2:55 AM72 °FFog.2 mph88%29.95 "Hg3 mi
1:55 AM72 °FClear.3 mph83%29.98 "Hg10 mi
12:55 AM73 °FClear.No wind83%29.98 "Hg10 mi
11:55 PM
Mon, May 2
75 °FClear.1 mph78%29.98 "Hg10 mi
10:55 PM75 °FClear.1 mph78%29.98 "Hg10 mi
9:55 PM77 °FClear.3 mph79%29.98 "Hg10 mi
8:55 PM81 °FSunny.2 mph70%29.98 "Hg10 mi
7:55 PM82 °FPassing clouds.5 mph62%29.95 "HgN/A
6:55 PM88 °FPassing clouds.8 mph49%29.92 "HgN/A
5:55 PM90 °FPassing clouds.7 mph43%29.92 "HgN/A
4:55 PM90 °FPassing clouds.8 mph46%29.92 "HgN/A
3:55 PM90 °FScattered clouds.10 mph46%29.92 "Hg6 mi
2:55 PM90 °FScattered clouds.7 mph49%29.95 "HgN/A
1:55 PM88 °FScattered clouds.8 mph52%29.98 "HgN/A
12:55 PM90 °FScattered clouds.7 mph43%29.98 "HgN/A
11:55 AM88 °FScattered clouds.12 mph49%29.98 "HgN/A
10:55 AM86 °FPassing clouds.10 mph55%29.98 "Hg6 mi
9:55 AM82 °FClear.10 mph62%29.98 "Hg6 mi
8:55 AM81 °FPassing clouds.5 mph70%29.98 "Hg6 mi
7:55 AM75 °FPassing clouds.3 mph78%29.98 "Hg6 mi
Weather by CustomWeather, © 2016

See weather overviewHow to use our weather pages